Surat Thani, Thailand

2:43 PM +07 on November 24, 2017 (GMT +0700)
Surat Thani

Weather History for VTSB - October, 2012

Change the Weather History Date:

Sunday, October 7, 2012

  Actual Average Record
Temperature  
Mean Temperature 81 °F -  
Max Temperature 87 °F 87 °F - ()
Min Temperature 75 °F 73 °F - ()
Cooling Degree Days 16    
Growing Degree Days 31 (Base 50)    
Moisture  
Dew Point 74 °F    
Average Humidity 79    
Maximum Humidity 100    
Minimum Humidity 40    
Precipitation  
Precipitation 0.00 in 0.35 in - ()
Sea Level Pressure  
Sea Level Pressure 29.84 in    
Wind  
Wind Speed 2 mph ()    
Max Wind Speed 8 mph    
Max Gust Speed -    
Visibility 5.2 miles    
Events      
T = Trace of Precipitation, MM = Missing Value Source: Averaged Metar Reports

Daily Weather History Graph

Daily Weather History Graph

Search for Another Location

Airport or City:

Trip Planner

Search our weather history database for the weather conditions in past years. The results will help you decide how hot, cold, wet, or windy it might be!

Date:

Astronomy

Oct. 07, 2012 Rise Set
Actual Time 6:11 AM +07 6:10 PM +07
Civil Twilight 5:50 AM +07 6:31 PM +07
Nautical Twilight 5:26 AM +07 6:56 PM +07
Astronomical Twilight 5:01 AM +07 7:20 PM +07
Moon 11:37 PM +07 (10/7) 11:40 AM +07 (10/7)
Length of Visible Light 12h 41m
Length of Day
11h 59m
Waning Gibbous, 60% of the Moon is Illuminated
Oct 7
Waning Gibbous
Oct 8
Last Quarter
Oct 15
New
Oct 22
First Quarter
Oct 30
Full

Hourly Weather History & Observations

Time (+07) Temp. Heat Index Dew Point Humidity Pressure Visibility Wind Dir Wind Speed Gust Speed Precip Events Conditions
12:00 AM 77.0 °F - 75.2 °F 94% 29.86 in 3.1 mi Calm Calm - N/A   Scattered Clouds
1:00 AM 76 °F - 74 °F 93% 29.86 in 4 mi Calm Calm - -   Mist
6:00 AM 75.2 °F - 75.2 °F 100% 29.83 in 3.1 mi Calm Calm - N/A   Mostly Cloudy
7:00 AM 75 °F - 74 °F 95% 29.85 in 4 mi Calm Calm - -   Mist
7:00 AM 77.0 °F - 75.2 °F 94% 29.86 in 3.7 mi Calm Calm - N/A   Overcast
8:00 AM 78.8 °F - 77.0 °F 94% 29.89 in 4.3 mi SSW 3.5 mph - N/A   Mostly Cloudy
9:00 AM 80.6 °F 86.2 °F 75.2 °F 84% 29.89 in 5.0 mi Calm Calm - N/A   Mostly Cloudy
10:00 AM 84.2 °F 92.3 °F 75.2 °F 74% 29.89 in 6.2 mi NW 3.5 mph - N/A   Overcast
11:00 AM 84.2 °F 92.3 °F 75.2 °F 74% 29.89 in 6.2 mi WNW 4.6 mph - N/A   Overcast
12:00 PM 84.2 °F 92.3 °F 75.2 °F 74% 29.86 in 6.2 mi WNW 4.6 mph - N/A   Overcast
1:00 PM 87 °F - 74 °F 57% 29.88 in 6 mi NW 3.5 mph - -   Overcast
1:00 PM 86.0 °F 93.4 °F 73.4 °F 66% 29.83 in 6.2 mi WNW 8.1 mph - N/A   Overcast
2:00 PM 102.2 °F 114.4 °F 73.4 °F 40% 29.80 in 6.2 mi WNW 5.8 mph - N/A   Overcast
4:00 PM 84.2 °F 90.9 °F 73.4 °F 70% 29.77 in 6.2 mi NW 5.8 mph - N/A   Overcast
5:00 PM 84.2 °F 90.9 °F 73.4 °F 70% 29.77 in 6.2 mi NNW 5.8 mph - N/A   Overcast
6:00 PM 80.6 °F 85.4 °F 73.4 °F 79% 29.80 in 6.2 mi NNW 3.5 mph - N/A   Overcast
7:00 PM 80 °F - 74 °F 77% 29.80 in 6 mi Calm Calm - -   Overcast
7:00 PM 80.6 °F 86.2 °F 75.2 °F 84% 29.80 in 5.0 mi NW 3.5 mph - N/A   Overcast
8:00 PM 78.8 °F - 73.4 °F 83% 29.80 in 4.3 mi Calm Calm - N/A   Mostly Cloudy